• In Deutschland
  • Länderverzeichnis
  • Für 7 Tage
  • Wassertemperatur
  • Satellitenkarten
  • Wetterkarte
  • Widgets
  • user-avatar
    Anmelden

    Stündliche Wetter Bad Bocklet

    Heute, 19 Oktober, Donnerstag

    Zeit Temperatur Niederschläge Wind Luftdruck Luftfeuchtigkeit
    00:00 +11°C° 0 mm 1 m/S 728 mmHg 82%
    01:00 +10°C° 0 mm 1 m/S 728 mmHg 82%
    02:00 +10°C° 0 mm 1 m/S 728 mmHg 82%
    03:00 +10°C° 0 mm 1 m/S 728 mmHg 82%
    04:00 +10°C° 0 mm 1 m/S 727 mmHg 83%
    05:00 +10°C° 0 mm 1 m/S 728 mmHg 83%
    06:00 +10°C° 0 mm 1 m/S 728 mmHg 84%
    07:00 +9°C° 0 mm 1 m/S 728 mmHg 82%
    08:00 +11°C° 0 mm 1 m/S 728 mmHg 77%
    09:00 +13°C° 0 mm 2 m/S 728 mmHg 71%
    10:00 +14°C° 0 mm 2 m/S 728 mmHg 66%
    11:00 +16°C° 0 mm 2 m/S 728 mmHg 63%
    12:00 +17°C° 0 mm 2 m/S 728 mmHg 60%
    13:00 +19°C° 0 mm 3 m/S 728 mmHg 56%
    14:00 +19°C° 0 mm 2 m/S 728 mmHg 60%
    15:00 +18°C° 0 mm 2 m/S 727 mmHg 63%
    16:00 +18°C° 0 mm 2 m/S 727 mmHg 66%
    17:00 +17°C° 0 mm 2 m/S 727 mmHg 72%
    18:00 +15°C° 0 mm 2 m/S 727 mmHg 78%
    19:00 +13°C° 0 mm 2 m/S 727 mmHg 83%
    20:00 +13°C° 0 mm 2 m/S 727 mmHg 84%
    21:00 +13°C° 0 mm 1 m/S 727 mmHg 85%
    22:00 +12°C° 0 mm 1 m/S 727 mmHg 85%
    23:00 +12°C° 0 mm 1 m/S 727 mmHg 85%

    Morgen, 20 Oktober, Freitag

    Zeit Temperatur Niederschläge Wind Luftdruck Luftfeuchtigkeit
    00:00 +12°C° 0 mm 1 m/S 727 mmHg 86%
    01:00 +11°C° 0 mm 1 m/S 727 mmHg 86%
    02:00 +12°C° 0 mm 1 m/S 727 mmHg 84%
    03:00 +12°C° 0 mm 1 m/S 727 mmHg 83%
    04:00 +12°C° 0 mm 1 m/S 727 mmHg 81%
    05:00 +11°C° 0 mm 1 m/S 727 mmHg 82%
    06:00 +11°C° 0 mm 1 m/S 728 mmHg 82%
    07:00 +10°C° 0 mm 2 m/S 728 mmHg 82%
    08:00 +12°C° 0 mm 2 m/S 728 mmHg 78%
    09:00 +13°C° 0 mm 2 m/S 728 mmHg 74%
    10:00 +15°C° 0 mm 2 m/S 729 mmHg 69%
    11:00 +15°C° 0,3 mm 2 m/S 729 mmHg 71%
    12:00 +15°C° 0,3 mm 2 m/S 729 mmHg 74%
    13:00 +15°C° 0,3 mm 2 m/S 729 mmHg 76%
    14:00 +14°C° 0,2 mm 3 m/S 729 mmHg 79%
    15:00 +14°C° 0,2 mm 3 m/S 729 mmHg 82%
    16:00 +13°C° 0,2 mm 3 m/S 729 mmHg 86%
    17:00 +13°C° 0 mm 3 m/S 729 mmHg 88%
    18:00 +12°C° 0 mm 3 m/S 729 mmHg 91%
    19:00 +12°C° 0 mm 2 m/S 729 mmHg 94%
    20:00 +12°C° 0 mm 2 m/S 730 mmHg 94%
    21:00 +10°C° 0 mm 2 m/S 730 mmHg 95%
    22:00 +10°C° 0 mm 2 m/S 730 mmHg 96%
    23:00 +10°C° 0 mm 2 m/S 730 mmHg 96%

    übermorgen, 21 Oktober, Samstag

    Zeit Temperatur Niederschläge Wind Luftdruck Luftfeuchtigkeit
    00:00 +9°C° 0 mm 2 m/S 730 mmHg 96%
    01:00 +10°C° 0 mm 1 m/S 730 mmHg 97%
    02:00 +11°C° 0 mm 1 m/S 730 mmHg 96%
    03:00 +11°C° 0 mm 1 m/S 729 mmHg 96%
    04:00 +12°C° 0 mm 1 m/S 729 mmHg 95%
    05:00 +12°C° 0 mm 2 m/S 729 mmHg 94%
    06:00 +12°C° 0 mm 2 m/S 729 mmHg 94%
    07:00 +12°C° 0 mm 2 m/S 729 mmHg 93%
    08:00 +12°C° 0 mm 3 m/S 729 mmHg 88%
    09:00 +13°C° 0 mm 3 m/S 729 mmHg 84%
    10:00 +15°C° 0 mm 4 m/S 729 mmHg 79%
    11:00 +15°C° 0,1 mm 4 m/S 729 mmHg 76%
    12:00 +17°C° 0,1 mm 4 m/S 729 mmHg 74%
    13:00 +18°C° 0,1 mm 4 m/S 728 mmHg 71%
    14:00 +17°C° 0,2 mm 4 m/S 728 mmHg 75%
    15:00 +16°C° 0,2 mm 3 m/S 728 mmHg 80%
    16:00 +16°C° 0,2 mm 3 m/S 728 mmHg 84%
    17:00 +14°C° 0,8 mm 3 m/S 728 mmHg 87%
    18:00 +13°C° 0,8 mm 3 m/S 728 mmHg 90%
    19:00 +13°C° 0,8 mm 3 m/S 729 mmHg 92%
    20:00 +12°C° 0,5 mm 3 m/S 729 mmHg 92%
    21:00 +12°C° 0,5 mm 4 m/S 729 mmHg 92%
    22:00 +11°C° 0,5 mm 4 m/S 730 mmHg 91%
    23:00 +10°C° 0,1 mm 4 m/S 730 mmHg 92%

    22 Oktober, Sonntag

    Zeit Temperatur Niederschläge Wind Luftdruck Luftfeuchtigkeit
    00:00 +10°C° 0,1 mm 4 m/S 730 mmHg 93%
    01:00 +8°C° 0,1 mm 4 m/S 730 mmHg 93%
    02:00 +8°C° 0 mm 4 m/S 730 mmHg 93%
    03:00 +8°C° 0 mm 4 m/S 730 mmHg 94%
    04:00 +7°C° 0 mm 4 m/S 730 mmHg 94%
    05:00 +7°C° 0 mm 4 m/S 730 mmHg 94%
    06:00 +8°C° 0 mm 3 m/S 729 mmHg 94%
    07:00 +7°C° 0 mm 3 m/S 729 mmHg 94%
    08:00 +7°C° 0 mm 4 m/S 730 mmHg 91%
    09:00 +7°C° 0 mm 4 m/S 730 mmHg 87%
    10:00 +8°C° 0 mm 4 m/S 730 mmHg 83%
    11:00 +8°C° 0,1 mm 5 m/S 730 mmHg 80%
    12:00 +8°C° 0,1 mm 5 m/S 730 mmHg 78%
    13:00 +9°C° 0,1 mm 5 m/S 729 mmHg 75%
    14:00 +8°C° 0,1 mm 4 m/S 729 mmHg 76%
    15:00 +8°C° 0,1 mm 4 m/S 729 mmHg 77%
    16:00 +8°C° 0,1 mm 4 m/S 729 mmHg 77%
    17:00 +8°C° 0 mm 3 m/S 730 mmHg 80%
    18:00 +8°C° 0 mm 3 m/S 730 mmHg 83%
    19:00 +7°C° 0 mm 3 m/S 730 mmHg 86%
    20:00 +7°C° 0,1 mm 3 m/S 730 mmHg 88%
    21:00 +7°C° 0,1 mm 3 m/S 730 mmHg 90%
    22:00 +6°C° 0,1 mm 4 m/S 731 mmHg 91%
    23:00 +6°C° 0,1 mm 4 m/S 731 mmHg 91%

    23 Oktober, Montag

    Zeit Temperatur Niederschläge Wind Luftdruck Luftfeuchtigkeit
    00:00 +6°C° 0,1 mm 4 m/S 731 mmHg 91%
    01:00 +6°C° 0,1 mm 4 m/S 731 mmHg 92%
    02:00 +6°C° 0 mm 4 m/S 731 mmHg 92%
    03:00 +6°C° 0 mm 4 m/S 731 mmHg 92%
    04:00 +7°C° 0 mm 3 m/S 732 mmHg 92%
    05:00 +7°C° 0 mm 3 m/S 732 mmHg 93%
    06:00 +7°C° 0 mm 3 m/S 732 mmHg 93%
    07:00 +7°C° 0 mm 3 m/S 733 mmHg 93%
    08:00 +7°C° 0,1 mm 3 m/S 733 mmHg 92%
    09:00 +8°C° 0,1 mm 3 m/S 733 mmHg 90%
    10:00 +8°C° 0,1 mm 3 m/S 734 mmHg 89%
    11:00 +9°C° 0,1 mm 3 m/S 734 mmHg 87%
    12:00 +9°C° 0,1 mm 3 m/S 734 mmHg 85%
    13:00 +10°C° 0,1 mm 3 m/S 734 mmHg 83%
    14:00 +10°C° 0,1 mm 3 m/S 734 mmHg 83%
    15:00 +10°C° 0,1 mm 3 m/S 735 mmHg 83%
    16:00 +10°C° 0,1 mm 3 m/S 735 mmHg 83%
    17:00 +9°C° 0,1 mm 2 m/S 735 mmHg 86%
    18:00 +9°C° 0,1 mm 2 m/S 735 mmHg 90%
    19:00 +8°C° 0,1 mm 2 m/S 735 mmHg 93%
    20:00 +8°C° 0,3 mm 2 m/S 735 mmHg 94%
    21:00 +8°C° 0,3 mm 2 m/S 735 mmHg 95%
    22:00 +8°C° 0,3 mm 2 m/S 736 mmHg 96%
    23:00 +8°C° 0,3 mm 2 m/S 735 mmHg 96%

    24 Oktober, Dienstag

    Zeit Temperatur Niederschläge Wind Luftdruck Luftfeuchtigkeit
    00:00 +9°C° 0,3 mm 2 m/S 735 mmHg 96%
    01:00 +9°C° 0,3 mm 2 m/S 735 mmHg 96%
    02:00 +9°C° 0,2 mm 2 m/S 735 mmHg 96%
    03:00 +9°C° 0,2 mm 2 m/S 735 mmHg 97%
    04:00 +9°C° 0,2 mm 2 m/S 735 mmHg 97%
    05:00 +10°C° 0,3 mm 1 m/S 735 mmHg 97%
    06:00 +10°C° 0,3 mm 1 m/S 736 mmHg 97%
    07:00 +10°C° 0,3 mm 1 m/S 736 mmHg 98%
    08:00 +11°C° 0,2 mm 1 m/S 736 mmHg 97%
    09:00 +11°C° 0,2 mm 1 m/S 737 mmHg 96%
    10:00 +11°C° 0,2 mm 1 m/S 737 mmHg 95%
    11:00 +12°C° 0 mm 1 m/S 737 mmHg 93%
    12:00 +13°C° 0 mm 1 m/S 737 mmHg 90%
    13:00 +14°C° 0 mm 1 m/S 737 mmHg 88%
    14:00 +14°C° 0 mm 1 m/S 737 mmHg 89%
    15:00 +13°C° 0 mm 1 m/S 737 mmHg 90%
    16:00 +13°C° 0 mm 1 m/S 737 mmHg 92%
    17:00 +13°C° 0 mm 1 m/S 737 mmHg 93%
    18:00 +12°C° 0 mm 1 m/S 737 mmHg 95%
    19:00 +12°C° 0 mm 1 m/S 738 mmHg 96%
    20:00 +11°C° 0 mm 1 m/S 738 mmHg 96%
    21:00 +11°C° 0 mm 1 m/S 738 mmHg 97%
    22:00 +11°C° 0 mm 1 m/S 738 mmHg 97%
    23:00 +10°C° 0 mm 1 m/S 738 mmHg 97%
    Mehr zeigen